Regional Weather Roundup
Issued by NWS

Home | Current Version | Previous Version | Graphics & Text | Print | Product List | Glossary On
Versions: 1 2 3 4 5 6 7 8 9 10 11 12 13 14 15 16 17 18 19 20 21 22 23 24 25 26 27 28 29 30 31 32 33 34 35 36 37 38 39 40 41 42 43 44 45 46 47 48
000
ASUS45 KCYS 221610
RWRWY

WYOMING REGIONAL WEATHER ROUNDUP
NATIONAL WEATHER SERVICE CHEYENNE WY
900 AM MST MON DEC 22 2014

NOTE:  "FAIR" INDICATES FEW OR NO CLOUDS BELOW 12,000 FEET
WITH NO SIGNIFICANT WEATHER AND/OR OBSTRUCTIONS TO VISIBILITY.

WYZ001-221700-
YELLOWSTONE NATIONAL PARK

CITY           SKY/WX    TMP DP  RH WIND       PRES   REMARKS
LK YELLOWSTONE   N/A     18  15  88 CALM      29.83R
W YELLOWSTONE  NOT AVBL

$$
WYZ002>013-054>058-071-098>099-221700-
NORTHERN WYOMING

CITY           SKY/WX    TMP DP  RH WIND       PRES   REMARKS
JACKSON        CLOUDY    28  25  86 S9        29.86S WCI  20
CODY           FAIR      27  23  86 S6        29.75F WCI  20
GREYBULL       CLOUDY    36  27  69 N20G36    29.76S WCI  25
WORLAND        LGT SNOW  32  28  85 NW13      29.78F FOG     WCI  22
SHERIDAN       MOCLDY    36  24  62 NW20      29.72R WCI  25
BUFFALO        CLOUDY    35  21  56 N15G25    29.70S WCI  25
GILLETTE       FAIR      33  22  63 NW18      29.67S WCI  22
HULETT           N/A    N/A N/A N/A MISG        N/A
NEWCASTLE      FAIR      30  25  80 N13       29.64S WCI  20

$$
WYZ014>020-022>026-101>103-221700-
CENTRAL WYOMING

CITY           SKY/WX    TMP DP  RH WIND       PRES   REMARKS
BIG PINEY      CLOUDY    26  21  81 NW5       29.83S WCI  20
PINEDALE       LGT SNOW  21  21 100 W6        29.83S VSB 3/4 WCI  14
DUBOIS         NOT AVBL
LANDER         FAIR      24  13  62 SE3       29.75R
RIVERTON       FAIR      23  17  78 NE8       29.76R WCI  14
CASPER         CLOUDY    29  23  78 W15       29.72F WCI  18
DOUGLAS        PTSUNNY   28  23  81 NW10      29.73R WCI  19

$$
WYZ021-027>030-104>119-221700-
SOUTHERN WYOMING

CITY           SKY/WX    TMP DP  RH WIND       PRES   REMARKS
EVANSTON       CLOUDY    30  29  96 SW13      29.90F WCI  20
KEMMERER       CLOUDY    28  27  93 W14       29.87F WCI  17
FORT BRIDGER   CLOUDY    31  30  93 W18G26    29.90S WCI  20
ROCK SPRINGS   CLOUDY    28  23  81 W22       29.83F WCI  14
DIXON          CLOUDY    29  26  85 W5        29.84S WCI  24
RAWLINS        CLOUDY    25  20  81 NW12G22   29.76S WCI  14
SARATOGA       CLOUDY    27  21  80 CALM      29.77S
LARAMIE        CLOUDY    25  17  72 NW22G31   29.69F WCI  10
CHEYENNE       CLOUDY    27  14  58 NW12      29.69F WCI  17
TORRINGTON     FAIR     N/A N/A N/A NW8       29.68F
PINE BLUFFS    FAIR      30  25  80 W13G21    29.70F WCI  20

$$


USA.gov is the U.S. government's official web portal to all federal, state and local government web resources and services.